Lid_Strength_Index
2 2 2 2 2 1 1 1 0 -0 -0 0 0 0 1 2 1 5 8 5 5 2 2 5 5 4 4 6 6 8 14 16 14 13 11 8 8 7 7 7 6 5 5 4 2
2 2 2 2 1 1 1 1 0 0 0 -0 0 1 2 2 4 7 4 1 1 0 3 7 8 6 7 8 7 10 14 14 11 11 10 9 9 9 8 8 8 6 4 3 2
2 2 2 2 2 1 1 1 0 1 0 -0 -0 1 2 2 8 8 2 1 0 0 4 7 7 7 8 8 8 10 12 10 9 9 9 10 9 8 8 9 8 7 6 4 4
3 2 2 2 2 1 1 1 0 2 1 0 1 1 2 4 14 5 -2 0 -1 2 6 7 9 11 11 10 8 11 8 8 8 8 9 10 8 8 8 8 6 6 4 4 4
3 2 2 2 2 1 1 1 0 1 2 1 1 1 4 8 9 4 0 -2 1 4 7 8 11 12 12 10 9 10 8 7 8 8 9 8 9 8 8 6 6 6 4 4 4
3 2 2 2 2 2 1 1 1 1 2 2 1 1 6 10 4 3 3 1 3 5 7 9 10 10 11 10 10 9 8 7 8 8 9 8 8 8 7 6 6 6 6 4 4
2 2 2 2 2 2 2 2 1 1 2 3 2 3 7 8 4 3 4 4 4 4 7 6 7 9 9 10 8 8 10 8 8 9 9 7 8 8 7 6 7 6 6 6 4
3 2 2 2 2 2 2 2 1 1 2 2 2 4 9 4 4 5 4 4 2 2 5 5 6 9 10 9 9 10 10 12 9 8 7 7 11 7 6 7 7 7 6 6 7
3 3 2 2 2 2 2 2 1 1 1 2 4 6 10 1 3 2 2 3 2 3 4 4 7 10 10 12 13 12 14 13 10 8 8 9 11 7 5 6 7 7 7 6 6
3 3 3 2 2 2 2 2 2 1 2 3 5 7 5 5 3 2 2 2 3 5 6 7 10 12 13 14 16 15 14 13 11 9 9 11 11 8 6 6 8 7 6 6 7
3 3 3 2 2 2 2 5 7 6 4 7 9 6 5 3 2 4 3 4 4 6 10 9 13 14 13 12 11 12 12 12 10 8 10 11 10 8 6 7 8 7 7 7 7
3 3 2 2 2 2 3 7 7 6 9 4 7 6 4 3 6 4 3 6 7 10 10 12 14 11 9 10 10 11 13 13 10 8 9 11 11 8 7 7 7 8 7 7 7
3 2 2 2 2 3 5 5 3 4 9 6 7 6 5 4 7 6 5 6 8 10 11 13 11 9 9 10 11 11 12 12 11 9 9 11 12 10 8 8 8 7 6 7 7
3 3 2 2 5 6 7 4 2 4 12 10 7 7 4 4 7 3 4 6 8 11 10 11 9 9 10 10 10 13 10 9 10 11 15 10 17 13 10 10 9 8 8 8 6
3 3 2 2 5 6 5 3 3 5 19 8 7 4 4 7 6 5 4 6 9 9 10 11 10 10 11 9 8 10 9 10 10 11 13 13 16 15 11 10 10 9 9 8 7
3 3 3 4 4 4 3 3 3 13 19 10 7 8 8 7 6 5 5 5 6 9 9 9 8 8 9 8 8 7 11 9 10 12 15 13 14 15 13 11 10 10 9 6 6
3 3 3 3 7 4 3 4 14 18 9 12 10 8 8 9 8 7 8 9 12 14 13 10 9 8 7 10 9 9 12 16 16 17 18 12 14 12 11 9 8 8 8 6 5
4 3 4 4 3 3 4 9 18 13 12 9 10 9 10 9 9 8 9 11 9 11 13 14 15 10 8 10 12 12 11 16 20 18 16 12 14 12 9 7 8 7 7 5 6
4 7 6 4 3 4 7 15 15 12 10 11 11 11 11 9 9 9 11 10 9 9 13 14 13 8 8 8 10 12 13 11 14 15 16 15 13 10 8 8 8 7 6 6 6
7 8 7 3 3 5 10 13 12 8 9 10 14 11 12 11 11 11 11 9 9 8 9 11 14 9 8 8 9 10 9 13 15 20 21 18 16 15 12 10 8 8 8 8 7
9 9 4 2 2 7 13 12 10 7 8 11 12 13 12 13 10 11 11 9 8 8 9 11 11 11 9 11 12 12 12 13 12 13 19 21 18 11 11 10 9 8 7 8 8
9 12 2 0 9 9 11 9 7 9 8 9 9 11 12 11 13 11 11 9 7 7 11 9 12 14 12 9 9 10 11 12 16 17 16 17 17 9 9 9 8 7 6 7 7
9 8 2 6 12 12 10 9 8 9 9 10 10 10 9 12 14 11 9 8 8 8 10 9 13 16 14 11 10 11 9 11 12 14 17 19 17 9 9 8 8 8 7 7 7
7 10 7 7 8 11 11 11 11 7 9 8 10 9 10 12 11 13 11 7 6 7 6 8 13 14 17 15 13 14 11 11 12 16 16 15 15 12 10 9 8 8 7 6 7
8 10 8 12 11 11 9 10 11 11 8 8 10 10 11 13 12 13 10 9 7 7 8 9 15 14 12 12 11 12 12 11 13 13 16 14 14 12 10 9 8 7 7 6 7
12 10 7 9 9 10 9 11 11 10 10 11 11 10 10 12 11 13 12 11 11 8 10 10 15 14 14 11 11 12 11 11 11 11 12 12 13 9 8 7 7 7 7 6 8
9 6 7 8 9 11 10 10 10 9 8 8 9 10 11 10 8 8 8 9 9 11 11 12 13 15 18 12 12 15 12 11 10 10 11 13 10 8 9 8 8 7 7 7 7